Location: Palm and Pines Mobile Home Park
(26.6565°N, 81.8508°W)
Time: 05:43:50
(UTC+00:00)

Daily predictions for brighter satellites

Satellite Brightness Start Highest point End
(mag) Time Altitude Azimuth Time Altitude Azimuth Time Altitude Azimuth
SAR-Lupe-3 4.4 00:01:19 10° SSE 00:04:51 72° ENE 00:08:23 10° N
Cosmos 2322 Rocket 3.0 00:03:04 10° SSE 00:07:48 28° ESE 00:12:34 10° NE
CZ-2C R/B 1.4 00:04:58 10° NW 00:08:00 39° NNE 00:09:30 24° ENE
CZ-4 R/B 2.4 00:06:45 15° ESE 00:09:19 27° ENE 00:12:49 10° NNE
CZ-4B R/B 3.3 00:04:30 10° SSE 00:09:38 51° ENE 00:14:51 10° N
IRIDIUM 104 4.3 00:06:15 10° SSE 00:11:19 57° E 00:16:25 10° N
Cosmos 2227 Rocket 2.8 00:06:38 10° NNW 00:12:12 61° WSW 00:17:45 10° S
DMSP B5D1-3 4.4 00:07:48 10° NNE 00:12:54 77° ESE 00:18:01 10° S
ARGOS Delta rocket 4.3 00:08:44 10° N 00:13:51 68° WNW 00:18:38 10° SSW
Cosmos 1980 Rocket 4.2 00:10:48 10° SW 00:15:43 31° WNW 00:20:40 10° N
Cosmos 1378 Rocket 3.8 00:12:36 10° N 00:16:45 42° E 00:20:50 10° SSE
Cosmos 2221 Rocket 3.5 00:13:07 10° N 00:17:38 67° E 00:22:08 10° SSE
Cosmos 1437 Rocket 2.9 00:14:46 10° SSE 00:18:21 42° E 00:21:55 10° NNE
Okean 2 4.1 00:14:52 10° NNW 00:18:56 56° W 00:22:57 10° S
H-2A R/B 2.0 00:19:25 10° NW 00:20:01 14° NNW 00:20:01 14° NNW
IRIDIUM 114 4.2 00:15:16 10° S 00:20:27 73° E 00:25:39 10° N
Cosmos 1726 2.8 00:18:37 10° SSW 00:22:10 55° W 00:25:44 10° N
Lacrosse 4 Rocket 2.2 00:19:06 10° SSE 00:22:10 28° ESE 00:22:10 28° ESE
COBE Rocket 3.8 00:17:45 10° SSE 00:22:43 78° ENE 00:27:33 10° N
PAYLOAD B 4.4 00:18:00 10° S 00:23:31 74° WSW 00:29:01 10° NNW
MOS 1-B 4.3 00:18:55 10° SSE 00:24:43 86° ENE 00:30:32 10° NNW
IUS-1 SRM-2 2.2 00:25:22 10° W 00:27:31 55° S 00:28:55 33° ESE
FALCON 9 R/B 0.7 00:25:48 10° W 00:27:01 38° W 00:27:01 38° W
Feng Yun 1-1 Rocket 4.5 00:22:47 10° SE 00:28:03 45° ENE 00:33:12 10° N
IRIDIUM 103 4.3 00:24:22 10° S 00:29:34 89° W 00:34:48 10° N
NOSS 3-1 (A) 4.4 00:21:42 10° NNW 00:30:01 83° WSW 00:39:16 10° SSE
GPS 2-14 Rocket1 4.3 00:29:27 10° WSW 00:32:29 23° S 00:33:34 20° SSE
Cosmos 1092 Rocket 4.1 00:28:16 10° SSE 00:34:21 51° E 00:40:24 10° NNE
SL-16 R/B 2.1 00:30:16 10° SSW 00:35:55 83° ESE 00:41:36 10° NNE
Meteor 1-12 Rocket 4.4 00:30:44 10° S 00:36:41 82° W 00:42:43 10° N
HJ-1C 3.2 00:36:51 34° S 00:38:03 75° W 00:41:09 10° NNW
SL-14 R/B 4.2 00:45:12 10° NNW 00:49:03 49° W 00:52:53 10° SSW
Meteor 1-22 Rocket 3.9 00:47:53 10° S 00:53:10 84° E 00:58:37 10° N
USA 267 3.2 01:01:44 41° SE 01:04:18 89° WSW 01:10:53 10° NW
Landsat 5 4.1 01:00:40 10° N 01:05:03 58° WNW 01:09:20 10° SSW
Okean O Rocket 2.7 01:02:35 10° S 01:06:41 43° W 01:10:50 10° NNW
Cosmos 2263 Rocket 2.1 01:03:44 10° NNW 01:09:27 90° WSW 01:10:13 68° SSE
Cosmos 1627 Rocket 4.4 01:05:17 10° S 01:11:24 84° W 01:17:32 10° N
BREEZE-M DEB (TANK) 3.4 01:05:20 10° SW 01:20:28 83° NW 01:21:07 71° NNE
ATLAS 5 CENTAUR R/B 3.3 00:48:32 10° WSW 01:20:39 56° S 01:23:01 47° SE
Hubble Space Telescope 2.6 01:19:47 10° W 01:21:56 29° W 01:21:56 29° W
Cosmos 2360 Rocket 2.9 01:18:46 10° SSW 01:22:32 44° SSW 01:22:32 44° SSW
Meteor 2-5 Rocket 4.5 01:22:54 10° N 01:26:30 42° N 01:26:30 42° N
SEDSat Delta rocket 4.3 01:29:16 10° WNW 01:34:54 58° NNW 01:34:54 58° NNW
CZ-4 R/B 4.2 01:42:41 13° WSW 01:44:09 16° W 01:46:40 10° WNW
Cosmos 2322 Rocket 4.0 01:46:52 10° WSW 01:51:40 28° WNW 01:56:30 10° N
Atlas Centaur 2 3.6 08:19:33 51° ENE 08:19:33 51° ENE 08:25:23 10° E
CENTAUR R/B 4.2 08:20:31 25° ENE 08:20:31 25° ENE 08:23:23 10° NE
Cosmos 2082 Rocket 4.3 08:25:17 21° NE 08:25:17 21° NE 08:27:11 10° NNE
Cosmos 1697 Rocket 4.3 08:34:30 26° NE 08:36:11 30° ENE 08:41:04 10° SE
NOSS 3-2 (A) 4.5 08:47:05 34° NE 08:47:05 34° NE 08:50:16 10° NNE
H-2A ROCKET BODY 2.6 08:59:13 73° E 08:59:13 73° E 09:11:58 10° E
ATLAS 3B CENTAUR R/B 3.5 09:01:03 63° WSW 09:03:24 88° SSE 09:16:27 10° E
Cosmos 1980 Rocket 3.8 09:12:09 10° N 09:17:06 32° ENE 09:22:03 10° SE
Cosmos 2173 Rocket 3.9 09:14:28 36° S 09:17:08 81° E 09:23:13 10° N
ASTRO E2 4.4 09:18:42 31° ENE 09:18:42 31° ENE 09:21:03 10° E
SL-24 R/B - RUBIN 2 4.2 09:22:27 50° NNE 09:22:27 50° NNE 09:25:42 10° NNE
Cosmos 1110 Rocket 4.3 09:23:45 36° S 09:25:50 65° ESE 09:30:59 10° NNE
ARIANE 5 R/B 2.6 09:21:01 10° N 09:25:07 59° N 09:25:07 59° N
Okean 1 4.1 09:27:16 48° NE 09:27:16 48° NE 09:30:23 10° NNE
Cosmos 1452 Rocket 3.4 09:29:00 68° NW 09:29:00 68° NW 09:33:52 10° N
Cosmos 1470 Rocket 4.0 09:24:29 10° N 09:28:45 58° E 09:33:04 10° SSE
IRS-1C 4.5 09:26:07 10° N 09:30:17 48° NNW 09:30:17 48° NNW
Meteor 1-27 Rocket 4.2 09:33:56 44° NW 09:33:56 44° NW 09:38:29 10° N
OAO 1 Rocket 4.3 09:32:53 72° SW 09:33:07 74° SSW 09:38:26 10° ESE
Meteor 1-29 4.0 09:32:18 10° NNE 09:34:57 42° ENE 09:34:57 42° ENE
ERS-1 4.4 09:30:33 10° N 09:35:42 66° WNW 09:35:59 64° W
Cosmos 676 Rocket 4.1 09:30:47 10° NNW 09:36:01 76° ENE 09:41:17 10° SSE
Cosmos 1484 Rocket 3.9 09:33:14 10° N 09:35:36 35° N 09:35:36 35° N
Tiangong -0.1 09:40:07 23° SE 09:40:07 23° SE 09:41:31 10° SE
USA 234 3.1 09:34:43 10° NE 09:41:15 85° NW 09:44:44 31° SW
CZ-3 R/B 3.5 09:25:07 32° WSW 09:41:33 88° SSE 09:50:16 10° E
Delta 128 4.0 09:44:24 45° SSW 09:45:10 50° SSE 09:49:40 10° E
Envisat 2.9 09:43:02 10° N 09:48:08 85° WNW 09:53:11 10° SSW
Cosmos 2100 Rocket 4.2 09:52:27 32° WSW 09:54:27 42° W 10:00:13 10° NNW
Delta 168 3.7 09:54:44 26° S 09:55:17 28° SSE 09:58:33 10° E
Cosmos 192 4.2 09:51:13 15° SSW 09:55:18 83° WNW 10:00:16 10° NNE
Cosmos 2016 Rocket 3.9 09:53:34 10° SSW 09:59:52 70° W 10:06:14 10° N
SL-08 R/B 4.3 09:54:40 10° S 10:00:43 83° W 10:06:50 10° N
Cosmos 2082 Rocket 3.8 10:07:11 15° NW 10:07:11 15° NW 10:09:29 10° NNW
Atlas Centaur 2 2.9 10:02:04 24° WNW 10:07:33 90° NNE 10:14:48 10° ESE
Cosmos 2061 Rocket 3.9 10:01:27 10° S 10:07:38 73° W 10:13:49 10° N
DELTA 2 DEB (DPAF) 4.0 10:03:44 10° S 10:08:05 68° WSW 10:12:27 10° NNW
CENTAUR R/B 3.4 10:07:44 22° WNW 10:08:37 23° NW 10:13:30 10° N
CZ-2C R/B 2.6 10:04:38 10° S 10:09:42 56° W 10:14:52 10° NNW
GPS 2-18 Rocket1 4.1 10:14:58 23° SW 10:16:31 33° S 10:19:58 10° ESE
YAOGAN 6 4.0 10:13:43 10° NNW 10:15:40 21° NW 10:15:40 21° NW
SJ-6F 4.3 10:12:58 10° NNE 10:17:06 89° WNW 10:21:11 10° SSW
Cosmos 1697 Rocket 3.6 10:16:38 15° WNW 10:19:54 26° WSW 10:24:28 10° SSW
Skynet4D Del rocket 3.6 10:16:13 22° W 10:20:09 87° N 10:25:39 10° E
Cosmos 1850 Rocket 4.3 10:16:10 10° N 10:21:30 74° ENE 10:26:49 10° SSE
H-2A R/B 3.0 10:20:09 10° N 10:23:36 41° WNW 10:27:03 10° SSW
Cosmos 1816 Rocket 4.4 10:18:01 10° N 10:24:10 76° W 10:30:15 10° S
Meteor 2-4 Rocket 3.7 10:18:38 10° SSW 10:24:26 69° W 10:30:08 10° N
SJ-12 3.9 10:20:47 10° NNE 10:24:53 85° ESE 10:28:58 10° S
CZ-2C R/B 2.8 10:23:28 10° N 10:27:11 52° WNW 10:30:59 10° SSW
Lacrosse 4 Rocket 3.9 10:28:24 10° N 10:32:04 25° ENE 10:35:44 10° ESE
Cosmos 1933 Rocket 4.1 10:29:32 10° NNW 10:33:34 36° W 10:37:33 10° SSW
NOSS 3-2 (C) 4.2 10:31:25 16° W 10:34:31 26° NW 10:39:15 10° N
SWAS 4.4 10:32:13 10° SSW 10:36:30 77° WNW 10:40:46 10° NNE
GP-B 3.9 10:33:40 10° SSW 10:37:29 29° W 10:41:20 10° NNW
PSLV R/B 4.0 10:33:33 10° N 10:37:31 38° WNW 10:41:27 10° SW
SKYMED 2 4.5 10:36:35 10° SSE 10:40:48 54° ENE 10:45:02 10° N
USA 276 4.1 10:41:08 12° WNW 10:42:18 14° NW 10:43:55 10° N
Cosmos 2233 Rocket 4.2 10:36:36 10° SSW 10:42:42 51° W 10:48:49 10° N
CZ-2C R/B 3.9 10:38:23 10° NNW 10:43:14 31° WNW 10:47:55 10° SW
CZ-4B R/B 3.6 10:38:36 10° N 10:43:49 66° WNW 10:49:01 10° SSW
MINOTAUR 4 R/B 4.1 10:40:28 10° SSE 10:43:57 79° ENE 10:47:26 10° N
Cosmos 1818 3.8 10:43:18 10° SSW 10:48:42 79° ESE 10:54:09 10° NNE
Cosmos 1741 Rocket 4.1 10:46:17 10° NNW 10:51:22 56° WSW 10:56:26 10° S
COSMOS 2487 2.4 10:50:07 10° S 10:52:55 65° ESE 10:55:45 10° NNE
Cosmos 2322 Rocket 4.0 10:48:13 10° N 10:53:24 36° ENE 10:58:32 10° SE
Tsikada Rocket 4.0 10:47:28 10° NNW 10:53:37 60° W 10:59:39 10° S
SL-08 R/B 4.3 10:50:46 10° SSW 10:54:28 24° W 10:58:14 10° NW
Lacrosse 5 rocket 1.5 10:49:57 10° SW 10:54:29 80° NW 10:59:02 10° NNE
ATLAS CENTAUR R/B 3.6 10:52:50 10° S 10:54:47 24° ESE 10:57:51 10° NE
ASTRO E2 2.7 10:53:38 10° WNW 10:57:29 65° SSW 11:01:21 10° ESE
CZ-4C R/B 4.0 10:54:16 10° SSW 10:58:00 36° W 11:01:54 10° NNW
Cosmos 2228 Rocket 4.1 10:54:48 10° SW 10:58:30 25° W 11:02:11 10° NNW
Cosmos 1980 Rocket 3.2 10:56:30 10° NW 11:00:49 23° WSW 11:05:08 10° SSW
ATLAS 3B CENTAUR R/B 4.2 10:49:41 10° W 11:01:22 84° N 11:14:31 10° E
Cosmos 1862 Rocket 3.6 10:57:06 10° S 11:01:33 73° W 11:06:01 10° N
